Date String (YYYY-MM-DD hh:mm:ss) UTC,Instrument flags,Ambient pressure (hPa),Sample flow (lpm),Bypass flow (lpm),Sample temperature (°C),Ambient temperature (°C),ASC tube jacket temperature (°C),LED temperature (°C),Box temperature (°C),Sample RH (%),Span deviation,Mass concentration (μg/m³),Mass concentration (μg/m³),Mass concentration (μg/m³)
DateTimeUTC,F1_M11,P_M11,Q1_M11,Q2_M11,T1_M11,T2_M11,T3_M11,T4_M11,T5_M11,U1_M11,ZSPAN_M11,X0_M11,X2_M11,X1_M11
2021-12-19 14:00:00,,0824.5,5.00,0.00,22.7,22.0,00.0,31.7,24.4,04.1,0000.0,0002.81,0000.80,0000.55
2021-12-19 14:01:00,,0824.4,4.99,0.00,22.7,22.0,00.0,31.7,24.4,04.0,0000.0,0002.81,0000.79,0000.54
2021-12-19 14:02:00,,0824.5,5.00,0.00,22.7,22.0,00.0,31.7,24.4,04.0,0000.0,0002.83,0000.79,0000.53
2021-12-19 14:03:00,,0824.5,4.99,0.00,22.7,21.9,00.0,31.7,24.4,04.2,0000.0,0002.85,0000.80,0000.54
2021-12-19 14:04:00,,0824.4,5.01,0.00,22.7,21.9,00.0,31.7,24.4,04.7,0000.0,0002.68,0000.91,0000.64
2021-12-19 14:05:00,,0824.5,5.00,0.00,22.7,21.9,00.0,31.7,24.4,04.5,0000.0,0002.05,0000.98,0000.74
2021-12-19 14:06:00,,0824.4,4.99,0.00,22.7,21.9,00.0,31.7,24.4,04.4,0000.0,0001.77,0001.07,0000.82
2021-12-19 14:07:00,,0824.5,5.00,0.00,22.7,21.9,00.0,31.7,24.4,04.4,0000.0,0001.80,0001.17,0000.89
2021-12-19 14:08:00,,0824.4,5.00,0.00,22.7,21.9,00.0,31.7,24.4,04.4,0000.0,0001.95,0001.27,0000.97
2021-12-19 14:09:00,,0824.5,5.01,0.00,22.7,21.9,00.0,31.7,24.4,04.3,0000.0,0002.08,0001.36,0001.02
2021-12-19 14:10:00,,0824.7,4.99,0.00,22.7,21.9,00.0,31.7,24.4,04.4,0000.0,0002.10,0001.40,0001.09
2021-12-19 14:11:00,,0824.6,5.00,0.00,22.7,21.9,00.0,31.7,24.4,04.5,0000.0,0002.25,0001.47,0001.17
2021-12-19 14:12:00,,0824.4,5.00,0.00,22.7,21.9,00.0,31.7,24.4,04.4,0000.0,0002.30,0001.53,0001.24
2021-12-19 14:13:00,,0824.6,5.00,0.00,22.7,21.9,00.0,31.6,24.4,04.3,0000.0,0002.59,0001.62,0001.27
2021-12-19 14:14:00,,0824.5,5.00,0.00,22.6,21.9,00.0,31.6,24.4,04.2,0000.0,0002.68,0001.66,0001.28
2021-12-19 14:15:00,,0824.6,5.00,0.00,22.7,21.9,00.0,31.6,24.4,04.3,0000.0,0003.18,0001.55,0001.19
2021-12-19 14:16:00,,0824.8,5.01,0.00,22.6,21.9,00.0,31.6,24.4,04.2,0000.0,0004.20,0001.47,0001.09
2021-12-19 14:17:00,,0824.6,4.99,0.00,22.7,21.9,00.0,31.6,24.4,04.3,0000.0,0004.42,0001.39,0001.02
2021-12-19 14:18:00,,0824.6,4.99,0.00,22.7,21.9,00.0,31.6,24.4,04.4,0000.0,0004.36,0001.34,0000.98
2021-12-19 14:19:00,,0824.6,5.01,0.00,22.6,21.9,00.0,31.6,24.4,04.4,0000.0,0004.32,0001.32,0000.96
2021-12-19 14:20:00,,0824.6,5.00,0.00,22.6,21.9,00.0,31.6,24.4,04.4,0000.0,0004.35,0001.32,0000.96
2021-12-19 14:21:00,,0824.7,4.99,0.00,22.6,21.9,00.0,31.6,24.4,04.4,0000.0,0004.31,0001.30,0000.95
2021-12-19 14:22:00,,0824.7,5.01,0.00,22.6,21.9,00.0,31.6,24.4,04.4,0000.0,0004.23,0001.26,0000.91
2021-12-19 14:23:00,,0824.7,4.98,0.00,22.6,21.9,00.0,31.6,24.4,04.6,0000.0,0004.32,0001.29,0000.91
2021-12-19 14:24:00,,0824.7,5.01,0.00,22.6,21.9,00.0,31.6,24.4,05.4,0000.0,0004.74,0001.53,0001.07
2021-12-19 14:25:00,,0824.7,4.99,0.00,22.6,21.8,00.0,31.6,24.4,05.4,0000.0,0004.94,0001.73,0001.28
2021-12-19 14:26:00,,0824.7,5.01,0.00,22.6,21.8,00.0,31.6,24.4,05.3,0000.0,0004.67,0001.93,0001.45
2021-12-19 14:27:00,,0824.6,4.99,0.00,22.6,21.8,00.0,31.6,24.4,05.8,0000.0,0004.72,0002.21,0001.66
2021-12-19 14:28:00,,0824.6,5.01,0.00,22.6,21.8,00.0,31.6,24.4,05.4,0000.0,0005.11,0002.44,0001.84
2021-12-19 14:29:00,,0824.6,4.99,0.00,22.6,21.8,00.0,31.6,24.4,05.6,0000.0,0005.70,0002.66,0002.00
2021-12-19 14:30:00,,0824.8,5.00,0.00,22.6,21.9,00.0,31.6,24.4,05.0,0000.0,0006.97,0002.85,0002.10
2021-12-19 14:31:00,,0824.8,5.00,0.00,22.6,21.9,00.0,31.6,24.4,05.1,0000.0,0008.39,0002.98,0002.17
2021-12-19 14:32:00,,0824.6,4.99,0.00,22.7,21.9,00.0,31.6,24.4,04.7,0000.0,0009.10,0003.05,0002.22
2021-12-19 14:33:00,,0824.6,5.01,0.00,22.6,21.9,00.0,31.6,24.4,04.5,0000.0,0010.37,0003.07,0002.24
2021-12-19 14:34:00,,0824.6,5.00,0.00,22.6,21.9,00.0,31.6,24.4,04.6,0000.0,0011.01,0003.07,0002.23
2021-12-19 14:35:00,,0824.7,5.00,0.00,22.6,21.9,00.0,31.6,24.3,04.7,0000.0,0010.89,0002.91,0002.13
2021-12-19 14:36:00,,0824.6,5.01,0.00,22.6,21.8,00.0,31.6,24.3,04.8,0000.0,0010.83,0002.75,0001.97
2021-12-19 14:37:00,,0824.6,5.00,0.00,22.6,21.8,00.0,31.6,24.3,04.8,0000.0,0010.74,0002.62,0001.87
2021-12-19 14:38:00,,0824.4,5.01,0.00,22.6,21.8,00.0,31.6,24.4,04.8,0000.0,0010.41,0002.40,0001.71
2021-12-19 14:39:00,,0824.5,4.98,0.00,22.6,21.9,00.0,31.6,24.3,05.0,0000.0,0010.08,0002.29,0001.62
2021-12-19 14:40:00,,0824.6,5.02,0.00,22.6,21.8,00.0,31.6,24.3,05.2,0000.0,0009.83,0002.23,0001.60
2021-12-19 14:41:00,,0824.6,5.00,0.00,22.6,21.8,00.0,31.6,24.3,05.4,0000.0,0009.19,0002.25,0001.67
2021-12-19 14:42:00,,0824.6,4.99,0.00,22.6,21.8,00.0,31.6,24.3,05.5,0000.0,0008.25,0002.34,0001.76
2021-12-19 14:43:00,,0824.6,5.02,0.00,22.6,21.8,00.0,31.6,24.3,05.6,0000.0,0007.77,0002.49,0001.88
2021-12-19 14:44:00,,0824.6,4.98,0.00,22.6,21.8,00.0,31.5,24.3,05.5,0000.0,0006.59,0002.69,0002.04
2021-12-19 14:45:00,,0824.6,5.01,0.00,22.6,21.8,00.0,31.5,24.3,05.3,0000.0,0005.62,0002.78,0002.15
2021-12-19 14:46:00,,0824.5,5.00,0.00,22.6,21.8,00.0,31.5,24.3,05.5,0000.0,0007.23,0002.83,0002.24
2021-12-19 14:47:00,,0824.6,4.99,0.00,22.6,21.8,00.0,31.5,24.2,05.4,0000.0,0007.31,0002.95,0002.35
2021-12-19 14:48:00,,0824.6,4.99,0.00,22.6,21.8,00.0,31.5,24.2,05.0,0000.0,0007.36,0003.01,0002.40
2021-12-19 14:49:00,,0824.7,5.01,0.00,22.6,21.8,00.0,31.5,24.3,04.9,0000.0,0007.24,0003.03,0002.42
2021-12-19 14:50:00,,0824.6,4.99,0.00,22.6,21.8,00.0,31.5,24.3,05.5,0000.0,0007.50,0003.11,0002.48
2021-12-19 14:51:00,,0824.6,4.99,0.00,22.5,21.8,00.0,31.5,24.2,05.3,0000.0,0008.25,0003.14,0002.50
2021-12-19 14:52:00,,0824.7,5.01,0.00,22.5,21.8,00.0,31.5,24.2,05.3,0000.0,0008.22,0003.07,0002.42
2021-12-19 14:53:00,,0824.7,5.01,0.00,22.6,22.2,00.0,31.6,24.4,05.3,0000.0,0008.38,0002.96,0002.33
2021-12-19 14:54:00,,0824.8,4.99,0.00,22.7,23.1,00.0,31.6,24.7,05.4,0000.0,0008.81,0002.92,0002.26
2021-12-19 14:55:00,,0824.7,5.00,0.00,22.9,23.7,00.0,31.7,24.9,05.8,0000.0,0008.86,0002.99,0002.31
2021-12-19 14:56:00,,0824.7,5.00,0.00,22.9,23.5,00.0,31.7,24.9,05.7,0000.0,0008.94,0003.13,0002.41
2021-12-19 14:57:00,,0824.7,5.02,0.00,22.9,23.3,00.0,31.7,24.9,05.5,0000.0,0008.13,0003.18,0002.46
2021-12-19 14:58:00,,0824.7,4.99,0.00,23.0,23.1,00.0,31.7,24.8,05.5,0000.0,0008.24,0003.19,0002.48
2021-12-19 14:59:00,,0824.6,5.01,0.00,23.0,23.0,00.0,31.7,24.8,05.5,0000.0,0008.87,0003.25,0002.57
